Location: Arrodets-la-Barthe
(43.0306°N, 0.2829°E)
Time: 12:32:30
(UTC+00:00)

USA 267 - Pass Details

Date: 24 October 2021
Orbit: 1101 x 1107 km, 123.0° (Epoch: 06 December)

Event Time Altitude Azimuth Distance (km) Brightness Sun altitude
Rises 17:54:21 0° 129° (SE) 3,907 5.7 -10.2°
Reaches altitude 10° 17:56:49 10° 129° (SE) 2,951 5.1 -10.7°
Maximum altitude 18:03:21 90° 218° (SW) 1,106 3.3 -11.9°
Drops below altitude 10° 18:09:55 10° 311° (NW) 2,963 6.2 -13.1°
Sets 18:12:24 0° 312° (NW) 3,923 6.9 -13.5°
